This demonstration page uses our WeatherBlox Daily Observations layout. Learn more.

Left ArrowRight Arrow

39.92423, -83.80882

Hourly Observations for April 18, 2021

Temp ( °F °C ) Dew Point ( °F °C ) Humidity (%) Winds ( mph kmh ) Pressure ( in mb ) Visibility ( mi km ) Precip ( " mm )
12:56 am 00:56 Clear 39 3.9 39 3.9 100 100 SSE 5 7 29.93 1014 10 16.0934 0 0
1:56 am 01:56 Clear 39 3.9 38 3.3 96 96 SSE 3 6 29.93 1013 10 16.0934 0 0
2:56 am 02:56 Clear 40 4.4 40 4.4 100 100 SW 5 7 29.92 1013 10 16.0934 0 0
3:56 am 03:56 Clear with Mist and Fog 39 3.9 39 3.9 100 100 SW 3 6 29.92 1013 5 8.0467 0 0
4:21 am 04:21 Clear with Mist and Fog 36 2 36 2 100 100 WSW 3 6 29.95 1014 1.75 2.816345 0 0
4:43 am 04:43 Clear with Light Rain 36 2 36 2 100 100 SW 3 6 29.95 1014 1 1.60934 0 0
4:48 am 04:48 Clear with Light Rain 36 2 36 2 100 100 SW 3 6 29.95 1014 0.5 0.80467 0 0
4:56 am 04:56 Clear with Light Rain 35 1.7 35 1.7 100 100 Calm 29.92 1013 0.5 0.80467 0 0
4:59 am 04:59 Clear with Light Rain 34 1 34 1 100 100 Calm 29.96 1015 1 1.60934 0 0
5:09 am 05:09 Clear with Fog 32 0 32 0 100 100 Calm 29.95 1014 0.5 0.80467 0 0
5:13 am 05:13 Mostly Cloudy with Fog 34 1 34 1 100 100 Calm 29.95 1014 0.25 0.402335 0 0
5:56 am 05:56 Mostly Cloudy with Fog 34 1.1 34 1.1 100 100 WSW 3 6 29.92 1013 0.25 0.402335 0 0
6:23 am 06:23 Mostly Cloudy with Mist and Fog 36 2 36 2 100 100 WSW 3 6 29.94 1014 0.75 1.207005 0 0
6:27 am 06:27 Mostly Clear with Mist and Fog 36 2 36 2 100 100 WSW 3 6 29.94 1014 1.25 2.011675 0 0
6:36 am 06:36 Mostly Clear with Mist and Fog 36 2 36 2 100 100 WSW 5 7 29.94 1014 2.5 4.02335 0 0
6:44 am 06:44 Clear with Mist and Fog 34 1 34 1 100 100 W 3 6 29.95 1014 1 1.60934 0 0
6:48 am 06:48 Clear with Fog 34 1 34 1 100 100 WSW 5 7 29.96 1015 0.5 0.80467 0 0
6:56 am 06:56 Sunny with Fog 32 0 32 0 100 100 W 3 6 29.93 1014 0.25 0.402335 0 0
7:01 am 07:01 Sunny with Mist and Fog 34 1 34 1 100 100 WNW 3 6 29.96 1015 0.75 1.207005 0 0
7:12 am 07:12 Sunny with Mist and Fog 34 1 34 1 100 100 W 3 6 29.96 1015 1.25 2.011675 0 0
7:24 am 07:24 Sunny with Mist and Fog 36 2 36 2 100 100 WNW 5 7 29.96 1015 3 4.82802 0 0
7:56 am 07:56 Mostly Sunny 39 3.9 39 3.9 100 100 WNW 6 9 29.95 1014 8 12.87472 0 0
8:56 am 08:56 Sunny 43 6.1 43 6.1 100 100 NW 9 15 29.95 1014 10 16.0934 0 0
9:56 am 09:56 Sunny 49 9.4 37 2.8 64 64 NW 6 9 29.95 1014 10 16.0934 0 0
10:56 am 10:56 Sunny 52 11.1 31 -0.6 45 45 NW 9 15 29.95 1014 10 16.0934 0 0
11:56 am 11:56 Sunny 54 12.2 33 0.6 45 45 WNW 7 11 29.94 1014 10 16.0934 0 0
12:56 pm 12:56 Sunny 58 14.4 33 0.6 39 39 WSW 12 19 29.92 1013 10 16.0934 0 0
1:56 pm 13:56 Sunny 59 15 29 -1.7 32 32 W 13 20 29.91 1013 10 16.0934 0 0
2:56 pm 14:56 Sunny 60 15.6 28 -2.2 30 30 W 12 19 29.91 1013 10 16.0934 0 0
3:56 pm 15:56 Sunny 61 16.1 26 -3.3 26 26 WNW 10 17 29.89 1012 10 16.0934 0 0
4:56 pm 16:56 Sunny 61 16.1 26 -3.3 26 26 WNW 9 15 29.88 1012 10 16.0934 0 0
5:56 pm 17:56 Sunny 61 16.1 27 -2.8 27 27 WNW 15 24 29.88 1012 10 16.0934 0 0
6:56 pm 18:56 Sunny 59 15 27 -2.8 29 29 NW 9 15 29.89 1012 10 16.0934 0 0
7:56 pm 19:56 Sunny 54 12.2 29 -1.7 38 38 NNW 8 13 29.88 1012 10 16.0934 0 0
8:56 pm 20:56 Clear 53 11.7 28 -2.2 38 38 N 5 7 29.9 1013 10 16.0934 0 0
9:56 pm 21:56 Clear 50 10 29 -1.7 44 44 Calm 29.91 1013 10 16.0934 0 0
10:56 pm 22:56 Clear 47 8.3 31 -0.6 54 54 Calm 29.91 1013 10 16.0934 0 0
11:56 pm 23:56 Mostly Cloudy 42 5.6 33 0.6 71 71 Calm 29.91 1013 10 16.0934 0 0

Powered by AerisWeather